Cecil Field, FL

4:07 AM EDT on June 24, 2017 (GMT -0400)
Cecil

Weather History for KVQQ - February, 2013

Change the Weather History Date:

Monday, February 18, 2013

  Actual Average (KNIP) Record (KNIP)
Temperature  
Mean Temperature 40 °F -  
Max Temperature 60 °F 66 °F 81 °F (2006)
Min Temperature 19 °F 50 °F 32 °F (2013)
Degree Days  
Heating Degree Days 26    
Moisture  
Dew Point 27 °F    
Average Humidity 81    
Maximum Humidity 100    
Minimum Humidity 33    
Precipitation  
Precipitation 0.00 in - - ()
Sea Level Pressure  
Sea Level Pressure 30.34 in    
Wind  
Wind Speed 1 mph (ESE)    
Max Wind Speed 10 mph    
Max Gust Speed -    
Visibility 10 miles    
Events      
Averages and records for this station are not official NWS values.
T = Trace of Precipitation, MM = Missing Value Source: NWS Daily Summary

Daily Weather History Graph

Daily Weather History Graph

Search for Another Location

Airport or City:

Trip Planner

Search our weather history database for the weather conditions in past years. The results will help you decide how hot, cold, wet, or windy it might be!

Date:

Astronomy

Feb. 18, 2013 Rise Set
Actual Time 7:04 AM EST 6:18 PM EST
Civil Twilight 6:40 AM EST 6:42 PM EST
Nautical Twilight 6:12 AM EST 7:11 PM EST
Astronomical Twilight 5:44 AM EST 7:38 PM EST
Moon 12:15 PM EST (2/18) 1:31 AM EST (2/18)
Length of Visible Light 12h 02m
Length of Day
11h 13m
First Quarter, 58% of the Moon is Illuminated
Feb 18
First Quarter
Feb 25
Full
Mar 4
Last Quarter
Mar 11
New
Mar 19
First Quarter

Hourly Weather History & Observations

Time (EST) Temp. Dew Point Humidity Pressure Visibility Wind Dir Wind Speed Gust Speed Precip Events Conditions
12:15 AM 24.8 °F 21.2 °F 86% 30.38 in 10.0 mi Calm Calm - N/A   Clear
12:35 AM 24.8 °F 21.2 °F 86% 30.38 in 10.0 mi Calm Calm - N/A   Clear
12:55 AM 23.0 °F 21.2 °F 93% 30.38 in 10.0 mi Calm Calm - N/A   Clear
1:15 AM 23.0 °F 19.4 °F 86% 30.38 in 10.0 mi Calm Calm - N/A   Clear
1:35 AM 23.0 °F 19.4 °F 86% 30.38 in 10.0 mi Calm Calm - N/A   Clear
1:55 AM 23.0 °F 19.4 °F 86% 30.38 in 10.0 mi Calm Calm - N/A   Clear
2:15 AM 23.0 °F 19.4 °F 86% 30.38 in 10.0 mi Calm Calm - N/A   Clear
2:35 AM 21.2 °F 19.4 °F 93% 30.37 in 10.0 mi Calm Calm - N/A   Clear
2:55 AM 21.2 °F 19.4 °F 93% 30.37 in 10.0 mi Calm Calm - N/A   Clear
3:15 AM 21.2 °F 19.4 °F 93% 30.36 in 10.0 mi Calm Calm - N/A   Clear
3:35 AM 21.2 °F 19.4 °F 93% 30.36 in 10.0 mi Calm Calm - N/A   Clear
3:55 AM 21.2 °F 19.4 °F 93% 30.36 in 10.0 mi Calm Calm - N/A   Clear
4:15 AM 21.2 °F 19.4 °F 93% 30.36 in 10.0 mi Calm Calm - N/A   Clear
4:35 AM 21.2 °F 19.4 °F 93% 30.36 in 10.0 mi Calm Calm - N/A   Clear
4:55 AM 21.2 °F 19.4 °F 93% 30.36 in 10.0 mi Calm Calm - N/A   Clear
5:15 AM 19.4 °F 17.6 °F 93% 30.37 in 10.0 mi Calm Calm - N/A   Clear
5:35 AM 19.4 °F 17.6 °F 93% 30.38 in 10.0 mi Calm Calm - N/A   Clear
5:55 AM 19.4 °F 17.6 °F 93% 30.38 in 10.0 mi Calm Calm - N/A   Clear
6:15 AM 19.4 °F 19.4 °F 100% 30.39 in 10.0 mi Calm Calm - N/A   Clear
6:35 AM 19.4 °F 17.6 °F 93% 30.39 in 10.0 mi Calm Calm - N/A   Clear
6:50 AM 19.4 °F 17.6 °F 93% 30.39 in 10.0 mi Calm Calm - N/A   Clear
7:50 AM 24.8 °F 23.0 °F 93% 30.40 in 10.0 mi Calm Calm - N/A   Clear
10:50 AM 53.6 °F 26.6 °F 35% 30.43 in 10.0 mi East 3.5 mph - N/A   Clear
11:50 AM 55.4 °F 26.6 °F 33% 30.42 in 10.0 mi ESE 10.4 mph - N/A   Clear
1:50 PM 59.0 °F 30.2 °F 34% 30.35 in 10.0 mi ESE 8.1 mph - N/A   Clear
2:50 PM 60.8 °F 32.0 °F 34% 30.33 in 10.0 mi South 6.9 mph - N/A   Clear
3:50 PM 60.8 °F 33.8 °F 36% 30.32 in 10.0 mi South 5.8 mph - N/A   Clear
4:50 PM 60.8 °F 37.4 °F 42% 30.32 in 10.0 mi East 6.9 mph - N/A   Clear
5:50 PM 57.2 °F 39.2 °F 51% 30.31 in 10.0 mi East 5.8 mph - N/A   Clear
6:50 PM 53.6 °F 39.2 °F 58% 30.30 in 10.0 mi East 4.6 mph - N/A   Clear
7:50 PM 50.0 °F 39.2 °F 66% 30.30 in 10.0 mi East 4.6 mph - N/A   Clear
8:15 PM 44.6 °F 39.2 °F 81% 30.30 in 10.0 mi Calm Calm - N/A   Clear
8:55 PM 41.0 °F 37.4 °F 87% 30.29 in 10.0 mi Calm Calm - N/A   Clear
9:15 PM 39.2 °F 35.6 °F 87% 30.28 in 10.0 mi Calm Calm - N/A   Clear
9:35 PM 39.2 °F 37.4 °F 93% 30.28 in 10.0 mi Calm Calm - N/A   Clear
9:55 PM 39.2 °F 35.6 °F 87% 30.28 in 10.0 mi Calm Calm - N/A   Clear
10:15 PM 39.2 °F 37.4 °F 93% 30.27 in 10.0 mi Calm Calm - N/A   Clear
10:35 PM 37.4 °F 35.6 °F 93% 30.27 in 10.0 mi Calm Calm - N/A   Clear
10:55 PM 37.4 °F 35.6 °F 93% 30.27 in 10.0 mi Calm Calm - N/A   Clear
11:15 PM 37.4 °F 37.4 °F 100% 30.25 in 10.0 mi Calm Calm - N/A   Clear
11:35 PM 37.4 °F 35.6 °F 93% 30.25 in 10.0 mi Calm Calm - N/A   Clear
11:55 PM 35.6 °F 35.6 °F 100% 30.26 in 10.0 mi Calm Calm - N/A   Clear